Probability
0 0 0 0 0 0 0 0 0 0 0 0 0 0 0 0 0 0 0 0 0 0 1 2 3 3 2 1 1 0 0 1 1 1 2 3 3 2 2 1 0 1 0
0 0 0 0 0 0 0 0 0 0 0 0 0 0 0 0 0 0 0 0 0 0 0 1 3 4 3 2 2 1 1 1 1 1 2 3 3 3 2 1 1 1 1
0 0 0 0 0 0 0 0 0 0 0 0 0 0 0 0 0 0 0 0 0 0 0 0 1 3 3 3 2 2 2 1 0 1 2 3 3 3 3 2 1 1 1
0 0 0 0 0 0 0 0 0 0 0 0 0 0 0 0 0 0 0 0 0 0 0 0 1 2 2 1 2 4 4 1 0 1 2 3 3 3 3 3 3 2 1
0 0 0 0 0 0 0 0 0 0 0 0 0 0 0 0 0 0 0 0 0 0 0 0 0 1 2 1 1 3 4 2 0 0 1 2 3 3 3 3 3 2 1
0 0 0 0 0 0 0 0 0 0 0 0 0 0 0 0 0 0 0 0 0 0 0 0 0 0 1 1 1 2 3 2 0 0 0 1 2 3 3 3 1 1 0
0 0 0 0 0 0 0 0 0 0 0 0 0 0 0 0 0 0 0 0 0 0 0 0 0 0 0 0 0 1 1 1 0 0 0 0 1 1 2 2 1 0 0
0 0 0 0 0 0 0 0 0 0 0 0 0 0 0 0 0 0 0 0 0 0 0 0 0 0 0 0 0 0 0 0 0 1 0 0 0 0 1 1 0 0 0
0 0 0 0 0 0 0 0 0 0 0 0 0 0 0 0 0 0 0 0 0 0 0 0 0 0 0 0 0 0 0 0 0 0 0 0 0 0 0 0 0 0 0
0 0 0 0 0 0 0 0 0 0 0 0 0 0 0 0 0 0 0 0 0 0 0 0 0 0 0 0 0 0 0 0 0 0 0 0 0 0 0 0 0 0 0
0 0 0 0 0 0 0 0 0 0 0 0 0 0 0 0 0 0 0 0 0 0 0 0 0 0 0 0 0 0 0 0 0 0 0 0 0 0 0 0 0 0 0
0 0 0 0 0 0 0 0 0 0 0 0 0 0 0 0 0 0 0 0 0 0 0 0 0 0 0 0 0 0 0 0 0 0 0 0 0 0 0 0 0 0 0
0 0 0 0 0 0 0 0 0 0 0 0 0 0 0 0 0 0 0 0 0 0 0 0 0 0 0 0 0 0 0 0 0 0 0 0 0 0 0 0 0 0 0
0 0 0 0 0 0 0 0 0 0 0 0 0 0 0 0 0 0 0 0 0 0 0 0 0 0 0 0 0 0 0 0 0 0 0 0 0 0 0 0 0 0 0
0 0 0 0 0 0 0 0 0 0 0 0 0 0 0 0 0 0 0 0 0 0 0 0 0 0 0 0 0 0 0 0 0 0 0 0 0 0 0 0 0 0 0
0 0 0 0 0 1 1 1 0 0 0 0 0 0 0 0 0 0 0 0 0 0 0 0 0 0 0 0 0 0 0 0 0 0 0 0 0 0 0 0 0 0 0
0 0 0 0 0 1 2 1 0 0 0 0 0 0 0 0 0 0 0 0 0 0 0 0 0 0 1 1 1 0 0 0 0 0 0 0 0 0 0 0 0 0 0
0 0 0 0 0 1 1 1 0 0 0 0 0 0 0 0 0 0 0 0 0 0 0 0 0 0 1 2 2 1 0 0 0 0 0 0 0 0 0 0 0 0 0
0 0 0 0 0 0 0 0 0 0 0 0 0 0 0 0 0 0 0 0 0 0 0 0 0 0 0 1 1 1 0 0 0 0 0 0 0 0 0 0 0 0 0
0 0 0 0 0 0 0 0 0 0 0 0 0 0 0 0 0 0 0 0 0 0 0 0 0 0 0 0 0 0 0 0 0 0 0 0 0 0 0 0 0 0 0
0 0 0 0 0 0 0 0 0 0 0 0 0 0 0 0 0 0 0 0 0 0 0 0 0 0 0 0 0 0 0 0 0 0 0 0 0 0 0 0 0 0 0
0 0 0 0 0 0 0 0 0 0 0 0 0 0 0 0 0 0 0 0 0 0 0 0 0 0 0 0 0 0 0 0 0 0 0 0 0 0 0 0 0 0 0
0 0 0 0 0 0 0 0 0 0 0 0 0 0 0 0 0 0 0 0 0 0 0 0 0 0 0 0 0 0 0 0 0 0 0 0 0 0 0 0 0 0 0
0 0 0 0 0 0 0 0 0 0 0 0 0 0 0 0 0 0 0 0 0 0 0 0 0 0 0 0 0 0 0 0 0 0 0 0 0 0 0 0 0 0 0
0 0 0 0 0 0 0 0 0 0 0 0 0 0 0 0 0 0 0 0 0 0 0 0 0 0 0 0 0 0 0 0 0 0 0 0 0 0 0 0 0 0 0
0 0 0 0 0 0 0 0 0 0 0 0 0 0 0 0 0 0 0 0 0 0 0 0 0 0 0 0 0 0 0 0 0 0 0 0 0 0 0 0 0 0 0
Wind_Speed
2 2 2 1 1 1 1 1 1 1 1 1 0 1 0 0 0 1 0 0 1 1 2 2 2 2 1 1 1 0 0 1 1 1 2 2 2 3 3 3 3 3 3
3 3 2 2 1 1 1 1 2 1 1 1 0 0 0 1 1 1 1 0 0 0 1 1 1 1 1 2 2 2 1 1 0 1 2 2 3 3 4 4 4 4 4
3 3 3 2 2 1 1 1 1 1 1 1 0 0 0 1 1 1 1 0 0 1 1 1 2 2 2 3 3 2 2 2 1 1 1 2 3 3 3 4 4 4 4
4 3 3 2 2 2 2 2 1 1 0 0 0 1 1 0 1 1 1 1 0 0 1 2 2 3 4 3 3 3 3 3 3 3 3 3 3 4 4 5 5 4 4
4 3 3 2 2 2 1 2 1 1 1 0 1 0 1 0 1 0 1 1 1 1 0 1 2 2 3 4 4 4 3 4 4 4 4 4 4 5 5 5 5 5 5
3 3 3 2 3 2 2 1 1 1 1 1 0 1 1 1 1 1 1 1 1 1 1 1 1 2 3 4 5 4 4 4 4 5 5 5 5 5 6 6 6 6 6
3 3 3 3 2 3 3 2 1 1 0 1 1 1 2 1 1 1 1 1 1 1 1 1 1 1 2 4 5 5 5 5 4 4 4 5 5 6 6 7 6 6 6
3 3 4 3 3 2 2 2 2 1 1 1 2 1 1 2 2 2 1 1 2 1 2 2 2 2 1 1 3 5 6 5 6 5 4 4 5 5 6 6 7 7 7
4 4 4 4 3 3 3 3 3 3 2 1 1 2 2 2 2 2 2 2 2 2 2 2 3 3 3 2 2 5 6 6 7 7 6 6 6 6 7 7 7 7 7
4 4 4 4 4 3 3 3 3 2 3 2 1 1 1 2 1 2 2 2 2 3 3 3 3 3 3 3 3 4 6 6 7 7 7 7 7 8 8 8 8 9 8
3 3 4 4 4 3 3 3 3 3 3 3 2 1 1 1 1 2 3 3 2 3 3 4 3 3 3 3 3 5 6 6 7 7 8 8 8 9 9 9 9 9 9
2 3 3 3 4 3 4 4 4 4 3 3 3 3 3 2 3 2 3 3 4 3 3 3 3 4 3 4 5 6 7 7 8 8 8 8 8 9 9 10 10 10 10
3 4 3 3 4 4 4 4 4 4 4 4 4 3 3 3 2 3 3 3 3 3 3 3 4 3 3 3 4 7 7 8 9 9 9 9 9 9 9 10 11 11 11
4 4 4 4 4 4 4 4 3 4 4 4 4 4 3 3 3 3 3 3 3 3 3 5 2 3 3 3 5 6 5 8 9 10 10 10 9 9 10 10 11 11 11
3 4 4 4 4 4 4 4 3 4 3 4 4 4 4 3 3 3 3 3 3 4 5 4 3 3 3 3 5 4 5 8 10 10 10 10 10 10 10 10 11 11 12
3 4 4 4 4 3 3 3 3 3 3 4 3 4 4 3 3 3 4 4 4 5 6 4 4 3 3 3 6 5 5 8 9 10 11 11 11 11 11 11 11 12 12
3 4 4 4 4 4 3 3 3 3 4 4 3 4 4 3 3 3 3 4 4 4 7 6 4 3 3 4 4 4 4 5 5 10 11 12 12 11 11 11 12 12 12
3 3 3 4 4 4 4 4 4 4 4 5 5 4 5 4 5 4 3 4 4 4 6 7 5 3 4 4 4 4 4 4 5 9 11 12 12 12 11 11 12 12 11
2 2 3 3 4 4 4 4 4 4 4 4 4 5 4 4 5 3 4 4 4 4 5 6 6 3 3 2 3 4 4 4 4 6 9 11 11 12 12 12 12 11 11
2 2 2 3 3 3 3 3 3 3 4 4 4 4 4 4 5 4 4 4 4 4 4 5 5 4 3 3 2 3 4 3 4 4 6 7 9 11 12 12 12 11 11
1 2 2 2 2 3 3 3 3 4 4 4 4 4 4 4 5 4 4 4 4 4 4 4 5 4 3 3 4 3 4 3 3 2 3 4 4 4 6 9 10 10 11
1 1 2 2 2 2 3 4 4 4 4 4 4 4 4 4 5 6 7 6 5 5 5 5 5 6 6 4 3 3 3 2 3 2 2 4 2 4 4 4 9 11 11
0 1 1 1 2 3 3 3 4 3 4 4 4 3 3 3 3 3 5 6 6 7 7 5 6 6 5 4 4 4 4 4 5 2 2 4 2 4 4 5 9 9 10
1 1 2 2 2 2 3 3 3 2 2 3 3 3 4 4 3 3 3 4 5 5 6 5 5 5 4 3 4 4 4 4 3 2 1 3 2 3 4 4 7 7 8
1 1 1 1 2 3 3 3 2 2 2 3 3 3 4 4 6 6 4 4 5 5 6 6 7 6 6 5 3 2 2 2 3 3 2 2 2 3 3 3 4 6 7
1 1 1 1 2 2 3 3 3 1 2 3 3 3 4 5 6 6 4 4 6 5 3 3 4 5 4 4 4 3 3 3 2 3 2 2 1 1 3 2 2 2 3
Wind_Direction
143 136 131 126 126 129 140 139 139 134 112 79 82 98 90 211 182 153 304 48 88 162 169 160 158 156 154 153 155 161 1 330 3 6 356 348 337 325 311 300 298 305 309
152 147 139 143 149 156 160 157 160 163 167 150 147 154 200 219 180 151 170 239 4 256 214 196 181 193 217 228 225 238 240 248 254 314 324 326 325 321 317 308 305 301 298
154 152 152 159 166 161 149 137 130 135 145 127 170 259 231 216 174 161 159 171 273 342 337 279 247 247 250 241 240 244 244 250 256 257 280 295 305 310 315 319 317 306 302
154 151 156 167 166 155 148 150 147 134 139 144 232 277 270 202 183 180 169 158 160 298 307 302 305 281 273 262 256 252 249 258 257 255 264 278 289 295 297 299 303 310 307
155 153 161 168 157 147 151 159 145 142 163 199 249 275 288 224 225 190 176 175 186 191 243 308 314 313 295 278 273 268 259 258 259 260 262 268 278 284 287 287 287 288 290
161 153 155 161 156 152 155 151 145 132 161 181 213 312 297 270 251 225 220 208 218 219 233 275 292 298 296 288 280 279 277 269 265 261 262 264 272 277 279 281 278 279 285
164 158 159 162 165 168 169 162 148 151 150 106 75 343 321 299 282 257 239 238 248 239 228 243 252 265 291 284 287 287 282 279 282 275 273 270 269 275 278 281 284 281 282
177 172 169 176 178 170 161 162 145 155 189 153 129 108 316 313 296 260 248 243 256 260 255 252 246 242 253 265 283 282 285 284 285 282 286 290 286 283 284 284 284 285 280
184 184 184 180 182 176 182 186 179 170 185 204 167 156 167 233 287 287 249 244 252 255 259 260 250 244 236 241 265 280 282 280 281 283 284 284 286 289 287 285 286 288 285
186 188 191 186 185 187 189 193 187 189 171 190 220 232 198 167 192 287 298 266 254 251 249 253 253 249 242 240 253 267 273 277 279 280 282 283 284 284 286 286 284 283 277
196 192 192 195 192 193 193 193 191 190 190 188 187 188 208 225 206 206 265 288 286 253 245 244 244 245 242 238 243 257 262 268 272 276 278 279 279 280 282 283 284 284 278
209 207 200 203 202 200 198 201 201 199 205 201 197 193 189 192 202 199 235 263 273 271 256 243 239 241 240 236 243 256 259 261 264 270 274 275 276 277 278 279 280 282 282
214 215 209 210 210 209 204 201 204 207 208 210 211 215 217 219 202 196 219 251 266 278 274 252 236 234 237 235 246 256 258 262 265 267 268 268 270 273 276 277 278 280 281
214 207 206 213 212 206 204 200 208 213 211 215 220 218 225 229 218 210 205 214 265 272 263 261 254 231 232 230 244 252 257 260 263 264 264 264 266 268 271 272 275 278 279
207 200 198 206 209 206 203 198 210 215 212 217 220 219 226 232 225 226 219 208 217 256 266 250 249 245 233 235 248 246 248 259 263 264 265 265 263 263 265 267 271 275 278
204 193 196 202 205 205 203 201 212 214 210 225 223 223 232 237 235 228 225 227 224 231 255 251 242 250 244 250 252 243 246 262 264 264 264 263 262 261 262 264 267 272 275
204 199 201 200 205 204 202 205 216 213 219 230 230 228 239 238 239 240 235 231 230 226 247 263 252 252 242 250 261 246 248 247 258 262 263 263 260 259 258 262 267 270 272
204 199 197 198 205 206 203 207 218 218 222 231 234 232 242 240 239 239 237 238 237 234 239 260 266 253 248 253 257 256 261 258 257 265 264 263 263 261 260 261 265 268 271
195 191 188 199 207 206 208 214 218 221 226 232 235 234 240 238 245 247 246 245 246 251 247 251 261 255 260 263 267 267 266 263 265 268 266 264 267 267 264 263 265 266 267
183 197 206 214 213 207 211 217 221 223 231 240 240 238 239 234 242 245 246 247 249 251 251 251 256 256 255 256 248 260 273 260 268 274 270 270 271 270 268 268 267 266 266
203 202 202 215 219 217 220 218 221 222 230 242 246 244 242 242 247 246 248 248 243 246 246 250 256 255 249 252 249 244 260 278 275 261 278 275 270 263 262 266 265 264 266
222 190 204 213 229 245 252 233 225 224 229 237 246 251 253 248 256 257 259 259 251 247 246 244 253 254 252 246 247 247 258 277 278 262 269 275 256 262 261 251 264 268 269
272 247 246 233 244 265 272 255 244 233 232 240 247 255 263 268 257 257 266 269 266 264 254 247 249 255 258 244 230 240 240 244 252 258 259 273 267 267 271 269 273 272 276
259 253 268 257 258 279 285 277 261 237 238 249 251 249 253 263 259 259 260 267 269 268 265 258 255 264 265 261 235 232 236 252 268 262 219 260 269 271 283 278 280 281 285
274 275 290 281 271 290 306 300 289 248 253 259 262 258 256 257 270 270 261 264 274 277 277 269 269 270 272 268 250 219 224 232 266 261 205 242 268 284 285 274 282 288 290
258 271 290 292 282 291 309 307 300 259 261 272 274 267 264 268 277 270 255 251 263 276 286 295 284 283 282 276 258 227 223 231 249 259 211 217 253 307 298 284 296 302 295